,,,PA_Meas_PMT16A,,PR_Meas_QMR101_102,,RH_Meas_QMH101,,SR_Meas_QMS101,,TA_Meas_QMH101,,GenWind,,GenWind,
date,time,status,PA,status,PR,status,RH,status,SR,status,TA,status,DirAvg,status,SpdAvg,
2008-08-12, 00:00:04,VALID,1009.69,VALID,0,VALID,92.9427,VALID,0,VALID,25.1557,VALID,122,VALID,0.715234,
2008-08-12, 00:01:04,VALID,1009.71,VALID,0,VALID,92.7063,VALID,0,VALID,25.1557,VALID,155,VALID,1.09414,
2008-08-12, 00:02:04,VALID,1009.68,VALID,0,VALID,92.5385,VALID,0,VALID,25.1752,VALID,160,VALID,1.15859,
2008-08-12, 00:03:04,VALID,1009.66,VALID,0,VALID,92.5309,VALID,0,VALID,25.1343,VALID,165,VALID,0.977344,
2008-08-12, 00:04:04,VALID,1009.68,VALID,0,VALID,92.4241,VALID,0.105969,VALID,25.1557,VALID,171,VALID,1.1207,
2008-08-12, 00:05:04,VALID,1009.69,VALID,0,VALID,92.3784,VALID,0,VALID,25.1557,VALID,144,VALID,1.04922,
2008-08-12, 00:06:04,VALID,1009.69,VALID,0,VALID,92.1801,VALID,0,VALID,25.1362,VALID,132,VALID,1.19141,
2008-08-12, 00:07:04,VALID,1009.71,VALID,0,VALID,92.0886,VALID,0,VALID,25.1148,VALID,151,VALID,1.04883,
2008-08-12, 00:08:04,VALID,1009.71,VALID,0,VALID,91.9818,VALID,0,VALID,25.1148,VALID,158,VALID,1.2957,
2008-08-12, 00:09:04,VALID,1009.73,VALID,0,VALID,91.6158,VALID,0,VALID,25.1148,VALID,146,VALID,1.80977,
2008-08-12, 00:10:04,VALID,1009.75,VALID,0,VALID,91.6387,VALID,0,VALID,25.1148,VALID,140,VALID,1.43359,
2008-08-12, 00:11:04,VALID,1009.75,VALID,0,VALID,91.6234,VALID,0,VALID,25.1362,VALID,149,VALID,1.00664,
2008-08-12, 00:12:04,VALID,1009.76,VALID,0,VALID,91.5624,VALID,0,VALID,25.1362,VALID,128,VALID,1.28164,
2008-08-12, 00:13:04,VALID,1009.73,VALID,0,VALID,91.5472,VALID,0,VALID,25.0973,VALID,154,VALID,0.735937,
2008-08-12, 00:14:04,VALID,1009.74,VALID,0,VALID,91.4709,VALID,0,VALID,25.1167,VALID,147,VALID,0.984375,
2008-08-12, 00:15:04,VALID,1009.68,VALID,0,VALID,91.6158,VALID,0,VALID,25.0973,VALID,156,VALID,1.06602,
2008-08-12, 00:16:04,VALID,1009.68,VALID,0,VALID,91.5624,VALID,0,VALID,25.0778,VALID,152,VALID,0.850781,
2008-08-12, 00:17:04,VALID,1009.66,VALID,0,VALID,91.6463,VALID,0.105969,VALID,25.0564,VALID,148,VALID,0.445313,
2008-08-12, 00:18:04,VALID,1009.63,VALID,0,VALID,91.6539,VALID,0,VALID,25.0583,VALID,145,VALID,0.799219,
2008-08-12, 00:19:04,VALID,1009.62,VALID,0,VALID,91.6005,VALID,0,VALID,25.0388,VALID,141,VALID,0.546094,
2008-08-12, 00:20:04,VALID,1009.59,VALID,0,VALID,91.6234,VALID,0,VALID,25.0388,VALID,142,VALID,0.738672,
2008-08-12, 00:21:04,VALID,1009.59,VALID,0,VALID,91.7226,VALID,0,VALID,25.0193,VALID,163,VALID,0.516016,
2008-08-12, 00:22:04,VALID,1009.58,VALID,0,VALID,91.7912,VALID,0,VALID,24.9998,VALID,160,VALID,0.879687,
2008-08-12, 00:23:04,VALID,1009.59,VALID,0,VALID,91.8217,VALID,0,VALID,24.9998,VALID,142,VALID,1.24141,
2008-08-12, 00:24:04,VALID,1009.6,VALID,0,VALID,91.9361,VALID,0,VALID,24.9998,VALID,150,VALID,0.838281,
2008-08-12, 00:25:04,VALID,1009.57,VALID,0,VALID,92.1039,VALID,0,VALID,24.9608,VALID,171,VALID,0.750391,
2008-08-12, 00:26:04,VALID,1009.58,VALID,0,VALID,92.0581,VALID,0,VALID,24.9608,VALID,143,VALID,1.19844,
2008-08-12, 00:27:04,VALID,1009.57,VALID,0,VALID,92.081,VALID,0,VALID,24.9608,VALID,155,VALID,0.960156,
2008-08-12, 00:28:04,VALID,1009.57,VALID,0,VALID,92.1572,VALID,0,VALID,24.9199,VALID,158,VALID,0.935938,
2008-08-12, 00:29:04,VALID,1009.57,VALID,0,VALID,92.2716,VALID,0,VALID,24.9413,VALID,155,VALID,0.606641,
2008-08-12, 00:30:04,VALID,1009.55,VALID,0,VALID,92.3097,VALID,0,VALID,24.8809,VALID,169,VALID,0.937891,
2008-08-12, 00:31:04,VALID,1009.55,VALID,0,VALID,92.4928,VALID,0,VALID,24.9023,VALID,144,VALID,0.6125,
2008-08-12, 00:32:04,VALID,1009.53,VALID,0,VALID,92.5538,VALID,0,VALID,24.8615,VALID,160,VALID,0.517969,
2008-08-12, 00:33:04,VALID,1009.5,VALID,0,VALID,92.5843,VALID,0,VALID,24.842,VALID,155,VALID,1.03477,
2008-08-12, 00:34:04,VALID,1009.49,VALID,0,VALID,92.4623,VALID,0,VALID,24.8633,VALID,151,VALID,1.44687,
2008-08-12, 00:35:04,VALID,1009.46,VALID,0,VALID,92.4394,VALID,0,VALID,24.8828,VALID,140,VALID,1.05391,
2008-08-12, 00:36:04,VALID,1009.46,VALID,0,VALID,92.4394,VALID,0,VALID,24.8615,VALID,152,VALID,0.673047,
2008-08-12, 00:37:04,VALID,1009.44,VALID,0,VALID,92.4165,VALID,0,VALID,24.8828,VALID,125,VALID,0.571094,
2008-08-12, 00:38:04,VALID,1009.43,VALID,0,VALID,92.447,VALID,0,VALID,24.842,VALID,174,VALID,0.798828,
2008-08-12, 00:39:04,VALID,1009.43,VALID,0,VALID,92.4089,VALID,0.105969,VALID,24.842,VALID,152,VALID,0.771484,
2008-08-12, 00:40:04,VALID,1009.44,VALID,0,VALID,92.4241,VALID,0,VALID,24.8633,VALID,151,VALID,0.755859,
2008-08-12, 00:41:04,VALID,1009.42,VALID,0,VALID,92.4775,VALID,0,VALID,24.8438,VALID,181,VALID,0.722266,
2008-08-12, 00:42:04,VALID,1009.44,VALID,0,VALID,92.5156,VALID,0,VALID,24.803,VALID,142,VALID,0.440234,
2008-08-12, 00:43:04,VALID,1009.45,VALID,0,VALID,92.5309,VALID,0,VALID,24.8457,VALID,174,VALID,0.486719,
2008-08-12, 00:44:04,VALID,1009.46,VALID,0,VALID,92.5843,VALID,0,VALID,24.8244,VALID,174,VALID,0.334375,
2008-08-12, 00:45:04,VALID,1009.45,VALID,0,VALID,92.5461,VALID,0,VALID,24.8049,VALID,173,VALID,0.691797,
2008-08-12, 00:46:04,VALID,1009.5,VALID,0,VALID,92.5843,VALID,0,VALID,24.7835,VALID,173,VALID,0.24375,
2008-08-12, 00:47:04,VALID,1009.5,VALID,0,VALID,92.6453,VALID,0,VALID,24.803,VALID,161,VALID,0.513672,
2008-08-12, 00:48:04,VALID,1009.51,VALID,0,VALID,92.6376,VALID,0,VALID,24.8049,VALID,131,VALID,0.643359,
2008-08-12, 00:49:04,VALID,1009.52,VALID,0,VALID,92.5766,VALID,0,VALID,24.8049,VALID,152,VALID,0.572266,
2008-08-12, 00:50:04,VALID,1009.5,VALID,0,VALID,92.6148,VALID,0,VALID,24.8049,VALID,137,VALID,0.827734,
2008-08-12, 00:51:04,VALID,1009.5,VALID,0,VALID,92.5385,VALID,0,VALID,24.7854,VALID,155,VALID,0.64375,
2008-08-12, 00:52:04,VALID,1009.48,VALID,0,VALID,92.5461,VALID,0,VALID,24.8049,VALID,112,VALID,0.647656,
2008-08-12, 00:53:04,VALID,1009.48,VALID,0,VALID,92.63,VALID,0,VALID,24.8049,VALID,121,VALID,0.555469,
2008-08-12, 00:54:04,VALID,1009.49,VALID,0,VALID,92.6376,VALID,0,VALID,24.8244,VALID,121,VALID,0.480859,
2008-08-12, 00:55:04,VALID,1009.48,VALID,0,VALID,92.5309,VALID,0,VALID,24.8244,VALID,126,VALID,0.778516,
2008-08-12, 00:56:04,VALID,1009.48,VALID,0,VALID,92.6605,VALID,0,VALID,24.8244,VALID,141,VALID,0.274219,
2008-08-12, 00:57:04,VALID,1009.5,VALID,0,VALID,92.5614,VALID,0,VALID,24.8244,VALID,148,VALID,0.3875,
2008-08-12, 00:58:04,VALID,1009.5,VALID,0,VALID,92.5385,VALID,0,VALID,24.8049,VALID,148,VALID,0.121484,
2008-08-12, 00:59:04,VALID,1009.5,VALID,0,VALID,92.5538,VALID,0,VALID,24.7854,VALID,148,VALID,0.292969,
2008-08-12, 01:00:04,VALID,1009.48,VALID,0,VALID,92.6071,VALID,0,VALID,24.7854,VALID,148,VALID,0.223828,
2008-08-12, 01:01:04,VALID,1009.5,VALID,0,VALID,92.6071,VALID,0,VALID,24.7854,VALID,147,VALID,0.4125,
2008-08-12, 01:02:04,VALID,1009.49,VALID,0,VALID,92.6682,VALID,0,VALID,24.7659,VALID,143,VALID,0.243359,
2008-08-12, 01:03:04,VALID,1009.46,VALID,0,VALID,92.7063,VALID,0,VALID,24.7854,VALID,139,VALID,0.542188,
2008-08-12, 01:04:04,VALID,1009.47,VALID,0,VALID,92.6987,VALID,0,VALID,24.7659,VALID,111,VALID,0.509375,
2008-08-12, 01:05:04,VALID,1009.44,VALID,0,VALID,92.7749,VALID,0,VALID,24.7854,VALID,126,VALID,0.525,
2008-08-12, 01:06:04,VALID,1009.42,VALID,0,VALID,92.7292,VALID,0,VALID,24.7659,VALID,125,VALID,0.639063,
2008-08-12, 01:07:04,VALID,1009.39,VALID,0,VALID,92.6834,VALID,0,VALID,24.7854,VALID,131,VALID,0.579297,
2008-08-12, 01:08:04,VALID,1009.35,VALID,0,VALID,92.6758,VALID,0,VALID,24.7659,VALID,136,VALID,0.564844,
2008-08-12, 01:09:04,VALID,1009.36,VALID,0,VALID,92.7063,VALID,0,VALID,24.8067,VALID,104,VALID,0.622656,
2008-08-12, 01:10:04,VALID,1009.32,VALID,0,VALID,92.6605,VALID,0,VALID,24.7659,VALID,104,VALID,0.413672,
2008-08-12, 01:11:04,VALID,1009.31,VALID,0,VALID,92.7292,VALID,0,VALID,24.764,VALID,104,VALID,0.364844,
2008-08-12, 01:12:04,VALID,1009.29,VALID,0,VALID,92.6758,VALID,0,VALID,24.7659,VALID,104,VALID,0.478906,
2008-08-12, 01:13:04,VALID,1009.27,VALID,0,VALID,92.5461,VALID,0,VALID,24.7659,VALID,105,VALID,0.405859,
2008-08-12, 01:14:04,VALID,1009.3,VALID,0,VALID,92.6834,VALID,0,VALID,24.7659,VALID,81,VALID,0.425391,
2008-08-12, 01:15:04,VALID,1009.3,VALID,0,VALID,92.752,VALID,0,VALID,24.7659,VALID,81,VALID,0.308203,
2008-08-12, 01:16:04,VALID,1009.3,VALID,0,VALID,92.7444,VALID,0,VALID,24.7464,VALID,80,VALID,0.434766,
2008-08-12, 01:17:04,VALID,1009.32,VALID,0,VALID,92.7978,VALID,0,VALID,24.7269,VALID,39,VALID,0.657031,
2008-08-12, 01:18:04,VALID,1009.31,VALID,0,VALID,92.8283,VALID,0,VALID,24.6879,VALID,68,VALID,0.539453,
2008-08-12, 01:19:04,VALID,1009.32,VALID,0,VALID,92.9198,VALID,0,VALID,24.6879,VALID,57,VALID,0.517578,
2008-08-12, 01:20:04,VALID,1009.3,VALID,0,VALID,92.9961,VALID,0,VALID,24.6684,VALID,46,VALID,0.253906,
2008-08-12, 01:21:04,VALID,1009.29,VALID,0,VALID,93.1333,VALID,0,VALID,24.6489,VALID,47,VALID,0.240234,
2008-08-12, 01:22:04,VALID,1009.25,VALID,0,VALID,93.1791,VALID,0,VALID,24.6294,VALID,61,VALID,0.379687,
2008-08-12, 01:23:04,VALID,1009.27,VALID,0,VALID,93.263,VALID,0,VALID,24.6294,VALID,70,VALID,0.352734,
2008-08-12, 01:24:04,VALID,1009.23,VALID,0,VALID,93.3163,VALID,0,VALID,24.6294,VALID,95,VALID,0.484375,
2008-08-12, 01:25:04,VALID,1009.23,VALID,0,VALID,93.3926,VALID,0,VALID,24.6081,VALID,89,VALID,0.445703,
2008-08-12, 01:26:04,VALID,1009.22,VALID,0,VALID,93.4307,VALID,0,VALID,24.6081,VALID,69,VALID,0.464063,
2008-08-12, 01:27:04,VALID,1009.19,VALID,0,VALID,93.4307,VALID,0,VALID,24.6099,VALID,69,VALID,0.0128906,
2008-08-12, 01:28:04,VALID,1009.21,VALID,0,VALID,93.4231,VALID,0,VALID,24.6099,VALID,69,VALID,0.310937,
2008-08-12, 01:29:04,VALID,1009.16,VALID,0,VALID,93.385,VALID,0,VALID,24.5905,VALID,91,VALID,0.367578,
2008-08-12, 01:30:04,VALID,1009.15,VALID,0,VALID,93.4155,VALID,0,VALID,24.5905,VALID,91,VALID,0.479297,
2008-08-12, 01:31:04,VALID,1009.15,VALID,0,VALID,93.4307,VALID,0,VALID,24.5905,VALID,93,VALID,0.482422,
2008-08-12, 01:32:04,VALID,1009.14,VALID,0,VALID,93.4384,VALID,0,VALID,24.5905,VALID,88,VALID,0.491016,
2008-08-12, 01:33:04,VALID,1009.1,VALID,0,VALID,93.3697,VALID,0,VALID,24.5905,VALID,88,VALID,0.396875,
2008-08-12, 01:34:04,VALID,1009.09,VALID,0,VALID,93.3621,VALID,0.105969,VALID,24.5905,VALID,86,VALID,0.404297,
2008-08-12, 01:35:04,VALID,1009.11,VALID,0,VALID,93.3392,VALID,0,VALID,24.6099,VALID,76,VALID,0.244922,
2008-08-12, 01:36:04,VALID,1009.12,VALID,0,VALID,93.3316,VALID,0,VALID,24.5691,VALID,75,VALID,0.291016,
2008-08-12, 01:37:04,VALID,1009.07,VALID,0,VALID,93.2935,VALID,0,VALID,24.571,VALID,72,VALID,0.180078,
2008-08-12, 01:38:04,VALID,1009.09,VALID,0,VALID,93.324,VALID,0,VALID,24.5515,VALID,72,VALID,0.195313,
2008-08-12, 01:39:04,VALID,1009.07,VALID,0,VALID,93.3621,VALID,0,VALID,24.532,VALID,72,VALID,0.338281,
2008-08-12, 01:40:04,VALID,1009.04,VALID,0,VALID,93.3316,VALID,0,VALID,24.5106,VALID,71,VALID,0.510938,
2008-08-12, 01:41:04,VALID,1009.04,VALID,0,VALID,93.4002,VALID,0,VALID,24.5125,VALID,71,VALID,0.258203,
2008-08-12, 01:42:04,VALID,1009.04,VALID,0,VALID,93.4841,VALID,0,VALID,24.5125,VALID,71,VALID,0.0046875,
2008-08-12, 01:43:04,VALID,1009.04,VALID,0,VALID,93.507,VALID,0,VALID,24.493,VALID,71,VALID,0.296484,
2008-08-12, 01:44:04,VALID,1009.05,VALID,0,VALID,93.5146,VALID,0,VALID,24.493,VALID,71,VALID,0.177734,
2008-08-12, 01:45:04,VALID,1009.02,VALID,0,VALID,93.5375,VALID,0,VALID,24.4735,VALID,71,VALID,0,
2008-08-12, 01:46:04,VALID,1009.02,VALID,0,VALID,93.5604,VALID,0,VALID,24.4735,VALID,71,VALID,0,
2008-08-12, 01:47:04,VALID,1009,VALID,0,VALID,93.5909,VALID,0,VALID,24.4735,VALID,71,VALID,0,
2008-08-12, 01:48:04,VALID,1009.02,VALID,0,VALID,93.6137,VALID,0,VALID,24.4735,VALID,71,VALID,0,
2008-08-12, 01:49:04,VALID,1009,VALID,0,VALID,93.7053,VALID,0.105969,VALID,24.4522,VALID,71,VALID,0,
2008-08-12, 01:50:04,VALID,1009.01,VALID,0,VALID,93.7129,VALID,0,VALID,24.4327,VALID,71,VALID,0.234766,
2008-08-12, 01:51:04,VALID,1009.01,VALID,0,VALID,93.7205,VALID,0.105969,VALID,24.4345,VALID,71,VALID,0.316016,
2008-08-12, 01:52:04,VALID,1008.99,VALID,0,VALID,93.7434,VALID,0,VALID,24.4345,VALID,53,VALID,0.383203,
2008-08-12, 01:53:04,VALID,1009,VALID,0,VALID,93.7663,VALID,0,VALID,24.4345,VALID,28,VALID,0.505859,
2008-08-12, 01:54:04,VALID,1008.97,VALID,0,VALID,93.7739,VALID,0,VALID,24.3937,VALID,28,VALID,0.307031,
2008-08-12, 01:55:04,VALID,1008.98,VALID,0,VALID,93.7968,VALID,0.105969,VALID,24.3937,VALID,28,VALID,0.402344,
2008-08-12, 01:56:04,VALID,1008.98,VALID,0,VALID,93.812,VALID,0,VALID,24.3547,VALID,23,VALID,0.376953,
2008-08-12, 01:57:04,VALID,1008.96,VALID,0,VALID,93.8578,VALID,0,VALID,24.3761,VALID,23,VALID,0.188672,
2008-08-12, 01:58:04,VALID,1008.95,VALID,0,VALID,93.9035,VALID,0,VALID,24.3352,VALID,23,VALID,0.199609,
2008-08-12, 01:59:04,VALID,1008.91,VALID,0,VALID,93.9417,VALID,0,VALID,24.3371,VALID,23,VALID,0.173828,
2008-08-12, 02:00:04,VALID,1008.89,VALID,0,VALID,93.995,VALID,0,VALID,24.3176,VALID,23,VALID,0.128125,
2008-08-12, 02:01:04,VALID,1008.89,VALID,0,VALID,94.0408,VALID,0,VALID,24.2981,VALID,23,VALID,0.118359,
2008-08-12, 02:02:04,VALID,1008.9,VALID,0,VALID,94.0865,VALID,0,VALID,24.2573,VALID,23,VALID,0.152344,
2008-08-12, 02:03:04,VALID,1008.89,VALID,0,VALID,94.1704,VALID,0,VALID,24.2573,VALID,23,VALID,0.108594,
2008-08-12, 02:04:04,VALID,1008.89,VALID,0,VALID,94.2391,VALID,0,VALID,24.2591,VALID,23,VALID,0,
2008-08-12, 02:05:04,VALID,1008.87,VALID,0,VALID,94.3306,VALID,0.105969,VALID,24.2378,VALID,23,VALID,0,
2008-08-12, 02:06:04,VALID,1008.86,VALID,0,VALID,94.4297,VALID,0.105969,VALID,24.2591,VALID,23,VALID,0,
2008-08-12, 02:07:04,VALID,1008.87,VALID,0,VALID,94.4983,VALID,0.105969,VALID,24.2573,VALID,23,VALID,0,
2008-08-12, 02:08:04,VALID,1008.9,VALID,0,VALID,94.4983,VALID,0,VALID,24.2378,VALID,23,VALID,0,
2008-08-12, 02:09:04,VALID,1008.9,VALID,0,VALID,94.5212,VALID,0,VALID,24.2378,VALID,29,VALID,0.18125,
2008-08-12, 02:10:04,VALID,1008.89,VALID,0,VALID,94.5517,VALID,0.105969,VALID,24.2378,VALID,29,VALID,0.0816406,
2008-08-12, 02:11:04,VALID,1008.89,VALID,0,VALID,94.5593,VALID,0,VALID,24.2591,VALID,29,VALID,0,
2008-08-12, 02:12:04,VALID,1008.89,VALID,0,VALID,94.5898,VALID,0.105969,VALID,24.2378,VALID,29,VALID,0.192969,
2008-08-12, 02:13:04,VALID,1008.88,VALID,0,VALID,94.6508,VALID,0.105969,VALID,24.2378,VALID,360,VALID,0.111328,
2008-08-12, 02:14:04,VALID,1008.91,VALID,0,VALID,94.6508,VALID,0.105969,VALID,24.2591,VALID,360,VALID,0.221875,
2008-08-12, 02:15:04,VALID,1008.88,VALID,0,VALID,94.6508,VALID,0,VALID,24.2378,VALID,360,VALID,0.0828125,
2008-08-12, 02:16:04,VALID,1008.88,VALID,0,VALID,94.6585,VALID,0,VALID,24.2396,VALID,360,VALID,0.00742187,
2008-08-12, 02:17:04,VALID,1008.87,VALID,0,VALID,94.6356,VALID,0,VALID,24.2202,VALID,360,VALID,0,
2008-08-12, 02:18:04,VALID,1008.88,VALID,0,VALID,94.6585,VALID,0,VALID,24.2415,VALID,360,VALID,0,
2008-08-12, 02:19:04,VALID,1008.86,VALID,0,VALID,94.6585,VALID,0,VALID,24.2202,VALID,360,VALID,0,
2008-08-12, 02:20:04,VALID,1008.87,VALID,0,VALID,94.6585,VALID,0,VALID,24.2007,VALID,360,VALID,0,
2008-08-12, 02:21:04,VALID,1008.83,VALID,0,VALID,94.6814,VALID,0,VALID,24.222,VALID,360,VALID,0,
2008-08-12, 02:22:04,VALID,1008.83,VALID,0,VALID,94.689,VALID,0,VALID,24.2025,VALID,360,VALID,0,
2008-08-12, 02:23:04,VALID,1008.84,VALID,0,VALID,94.689,VALID,0,VALID,24.2007,VALID,360,VALID,0,
2008-08-12, 02:24:04,VALID,1008.85,VALID,0,VALID,94.7042,VALID,0,VALID,24.1617,VALID,360,VALID,0,
2008-08-12, 02:25:04,VALID,1008.84,VALID,0,VALID,94.7195,VALID,0,VALID,24.1617,VALID,360,VALID,0,
2008-08-12, 02:26:04,VALID,1008.84,VALID,0,VALID,94.75,VALID,0,VALID,24.1617,VALID,360,VALID,0,
2008-08-12, 02:27:04,VALID,1008.85,VALID,0,VALID,94.7805,VALID,0,VALID,24.1617,VALID,360,VALID,0,
2008-08-12, 02:28:04,VALID,1008.88,VALID,0,VALID,94.8186,VALID,0,VALID,24.2025,VALID,16,VALID,0,
2008-08-12, 02:29:04,VALID,1008.89,VALID,0,VALID,94.8262,VALID,0,VALID,24.1812,VALID,78,VALID,0.0617188,
2008-08-12, 02:30:04,VALID,1008.9,VALID,0,VALID,94.8644,VALID,0,VALID,24.1812,VALID,78,VALID,0.101563,
2008-08-12, 02:31:04,VALID,1008.91,VALID,0,VALID,94.872,VALID,0.105969,VALID,24.2007,VALID,40,VALID,0.169922,
2008-08-12, 02:32:04,VALID,1008.92,VALID,0,VALID,94.8644,VALID,0.105969,VALID,24.1793,VALID,40,VALID,0.210938,
2008-08-12, 02:33:04,VALID,1008.89,VALID,0,VALID,94.872,VALID,0.105969,VALID,24.1988,VALID,40,VALID,0.278516,
2008-08-12, 02:34:04,VALID,1008.88,VALID,0,VALID,94.8796,VALID,0,VALID,24.2007,VALID,40,VALID,0.261719,
2008-08-12, 02:35:04,VALID,1008.86,VALID,0,VALID,94.8644,VALID,0.105969,VALID,24.1793,VALID,40,VALID,0,
2008-08-12, 02:36:04,VALID,1008.88,VALID,0,VALID,94.872,VALID,0.105969,VALID,24.1599,VALID,40,VALID,0,
2008-08-12, 02:37:04,VALID,1008.83,VALID,0,VALID,94.8873,VALID,0.105969,VALID,24.1599,VALID,40,VALID,0,
2008-08-12, 02:38:04,VALID,1008.8,VALID,0,VALID,94.8796,VALID,0.105969,VALID,24.1599,VALID,40,VALID,0,
2008-08-12, 02:39:04,VALID,1008.78,VALID,0,VALID,94.8873,VALID,0.105969,VALID,24.1404,VALID,40,VALID,0,
2008-08-12, 02:40:04,VALID,1008.77,VALID,0,VALID,94.8796,VALID,0.105969,VALID,24.1599,VALID,40,VALID,0,
2008-08-12, 02:41:04,VALID,1008.77,VALID,0,VALID,94.8796,VALID,0.105969,VALID,24.1599,VALID,23,VALID,0.312891,
2008-08-12, 02:42:04,VALID,1008.74,VALID,0,VALID,94.9101,VALID,0.105969,VALID,24.1599,VALID,23,VALID,0.423828,
2008-08-12, 02:43:04,VALID,1008.72,VALID,0,VALID,94.8644,VALID,0.105969,VALID,24.1404,VALID,23,VALID,0.189453,
2008-08-12, 02:44:04,VALID,1008.72,VALID,0,VALID,94.8644,VALID,0.105969,VALID,24.1404,VALID,23,VALID,0.296875,
2008-08-12, 02:45:04,VALID,1008.69,VALID,0,VALID,94.8491,VALID,0.105969,VALID,24.0996,VALID,23,VALID,0.0910156,
2008-08-12, 02:46:04,VALID,1008.65,VALID,0,VALID,94.8491,VALID,0.105969,VALID,24.1209,VALID,23,VALID,0,
2008-08-12, 02:47:04,VALID,1008.64,VALID,0,VALID,94.872,VALID,0,VALID,24.1209,VALID,23,VALID,0,
2008-08-12, 02:48:04,VALID,1008.62,VALID,0,VALID,94.8873,VALID,0.105969,VALID,24.1014,VALID,23,VALID,0,
2008-08-12, 02:49:04,VALID,1008.6,VALID,0,VALID,94.8644,VALID,0.105969,VALID,24.1014,VALID,23,VALID,0,
2008-08-12, 02:50:04,VALID,1008.59,VALID,0,VALID,94.872,VALID,0.105969,VALID,24.1014,VALID,23,VALID,0,
2008-08-12, 02:51:04,VALID,1008.62,VALID,0,VALID,94.8949,VALID,0.105969,VALID,24.1014,VALID,23,VALID,0,
2008-08-12, 02:52:04,VALID,1008.61,VALID,0,VALID,94.9025,VALID,0.105969,VALID,24.1014,VALID,23,VALID,0,
2008-08-12, 02:53:04,VALID,1008.61,VALID,0,VALID,94.9254,VALID,0.105969,VALID,24.1227,VALID,23,VALID,0,
2008-08-12, 02:54:04,VALID,1008.6,VALID,0,VALID,94.9178,VALID,0.105969,VALID,24.1209,VALID,23,VALID,0,
2008-08-12, 02:55:04,VALID,1008.58,VALID,0,VALID,94.9406,VALID,0.105969,VALID,24.1404,VALID,23,VALID,0.191406,
2008-08-12, 02:56:04,VALID,1008.59,VALID,0,VALID,94.9406,VALID,0.105969,VALID,24.1404,VALID,23,VALID,0.214844,
2008-08-12, 02:57:04,VALID,1008.59,VALID,0,VALID,94.9406,VALID,0.105969,VALID,24.1617,VALID,23,VALID,0.427734,
2008-08-12, 02:58:04,VALID,1008.56,VALID,0,VALID,94.9635,VALID,0.105969,VALID,24.1599,VALID,23,VALID,0.342969,
2008-08-12, 02:59:04,VALID,1008.54,VALID,0,VALID,94.9101,VALID,0.105969,VALID,24.1599,VALID,23,VALID,0.296875,
2008-08-12, 03:00:04,VALID,1008.56,VALID,0,VALID,94.9101,VALID,0.105969,VALID,24.1404,VALID,23,VALID,0.159766,
2008-08-12, 03:01:04,VALID,1008.56,VALID,0,VALID,94.8796,VALID,0.105969,VALID,24.1599,VALID,32,VALID,0.328125,
2008-08-12, 03:02:04,VALID,1008.54,VALID,0,VALID,94.8262,VALID,0.105969,VALID,24.1404,VALID,33,VALID,0.316797,
2008-08-12, 03:03:04,VALID,1008.54,VALID,0,VALID,94.8415,VALID,0.105969,VALID,24.1404,VALID,82,VALID,0.385547,
2008-08-12, 03:04:04,VALID,1008.56,VALID,0,VALID,94.8262,VALID,0.105969,VALID,24.1404,VALID,101,VALID,0.393359,
2008-08-12, 03:05:04,VALID,1008.53,VALID,0,VALID,94.7652,VALID,0.105969,VALID,24.1404,VALID,101,VALID,0.378516,
2008-08-12, 03:06:04,VALID,1008.53,VALID,0,VALID,94.7347,VALID,0,VALID,24.1209,VALID,101,VALID,0.324219,
2008-08-12, 03:07:04,VALID,1008.52,VALID,0,VALID,94.7119,VALID,0.105969,VALID,24.1422,VALID,101,VALID,0.364453,
2008-08-12, 03:08:04,VALID,1008.51,VALID,0,VALID,94.7195,VALID,0.105969,VALID,24.1209,VALID,109,VALID,0.438281,
2008-08-12, 03:09:04,VALID,1008.49,VALID,0,VALID,94.6966,VALID,0.105969,VALID,24.1209,VALID,169,VALID,0.639844,
2008-08-12, 03:10:04,VALID,1008.47,VALID,0,VALID,94.689,VALID,0.105969,VALID,24.1404,VALID,173,VALID,0.512891,
2008-08-12, 03:11:04,VALID,1008.45,VALID,0,VALID,94.6737,VALID,0.105969,VALID,24.1404,VALID,174,VALID,0.488281,
2008-08-12, 03:12:05,VALID,1008.47,VALID,0,VALID,94.6661,VALID,0.105969,VALID,24.1404,VALID,178,VALID,0.419141,
2008-08-12, 03:13:05,VALID,1008.45,VALID,0,VALID,94.6661,VALID,0.105969,VALID,24.1599,VALID,178,VALID,0.451562,
2008-08-12, 03:14:05,VALID,1008.48,VALID,0,VALID,94.6508,VALID,0.105969,VALID,24.1599,VALID,182,VALID,0.481641,
2008-08-12, 03:15:05,VALID,1008.49,VALID,0,VALID,94.6585,VALID,0.105969,VALID,24.1793,VALID,182,VALID,0.447266,
2008-08-12, 03:16:05,VALID,1008.48,VALID,0,VALID,94.5822,VALID,0.105969,VALID,24.1793,VALID,196,VALID,0.529688,
2008-08-12, 03:17:05,VALID,1008.52,VALID,0,VALID,94.5517,VALID,0.105969,VALID,24.1793,VALID,197,VALID,0.460547,
2008-08-12, 03:18:05,VALID,1008.5,VALID,0,VALID,94.5136,VALID,0.105969,VALID,24.1599,VALID,197,VALID,0.558594,
2008-08-12, 03:19:05,VALID,1008.51,VALID,0,VALID,94.4755,VALID,0.105969,VALID,24.1599,VALID,218,VALID,0.417188,
2008-08-12, 03:20:05,VALID,1008.52,VALID,0,VALID,94.4678,VALID,0.105969,VALID,24.1793,VALID,218,VALID,0.412109,
2008-08-12, 03:21:05,VALID,1008.54,VALID,0,VALID,94.4678,VALID,0.105969,VALID,24.1599,VALID,218,VALID,0.331641,
2008-08-12, 03:22:05,VALID,1008.51,VALID,0,VALID,94.4526,VALID,0.105969,VALID,24.1793,VALID,218,VALID,0.354297,
2008-08-12, 03:23:05,VALID,1008.51,VALID,0,VALID,94.4297,VALID,0.105969,VALID,24.1988,VALID,218,VALID,0.286328,
2008-08-12, 03:24:05,VALID,1008.52,VALID,0,VALID,94.3763,VALID,0.105969,VALID,24.1988,VALID,218,VALID,0.25625,
2008-08-12, 03:25:05,VALID,1008.51,VALID,0,VALID,94.3229,VALID,0.105969,VALID,24.1988,VALID,220,VALID,0.369141,
2008-08-12, 03:26:05,VALID,1008.52,VALID,0,VALID,94.3077,VALID,0.105969,VALID,24.2183,VALID,220,VALID,0.327734,
2008-08-12, 03:27:05,VALID,1008.51,VALID,0,VALID,94.2696,VALID,0.105969,VALID,24.2183,VALID,216,VALID,0.605859,
2008-08-12, 03:28:05,VALID,1008.53,VALID,0,VALID,94.1781,VALID,0.105969,VALID,24.1988,VALID,215,VALID,0.575391,
2008-08-12, 03:29:05,VALID,1008.52,VALID,0,VALID,94.1323,VALID,0,VALID,24.1988,VALID,213,VALID,0.530859,
2008-08-12, 03:30:05,VALID,1008.55,VALID,0,VALID,94.1171,VALID,0.105969,VALID,24.1988,VALID,212,VALID,0.487891,
2008-08-12, 03:31:05,VALID,1008.54,VALID,0,VALID,94.1323,VALID,0.105969,VALID,24.1988,VALID,212,VALID,0.38125,
2008-08-12, 03:32:05,VALID,1008.56,VALID,0,VALID,94.1323,VALID,0.105969,VALID,24.1988,VALID,212,VALID,0.299219,
2008-08-12, 03:33:05,VALID,1008.57,VALID,0,VALID,94.1476,VALID,0,VALID,24.1599,VALID,209,VALID,0.227344,
2008-08-12, 03:34:05,VALID,1008.57,VALID,0,VALID,94.1704,VALID,0,VALID,24.1599,VALID,209,VALID,0.065625,
2008-08-12, 03:35:05,VALID,1008.58,VALID,0,VALID,94.2086,VALID,0.105969,VALID,24.1599,VALID,209,VALID,0.0972656,
2008-08-12, 03:36:05,VALID,1008.59,VALID,0,VALID,94.2238,VALID,0.105969,VALID,24.1599,VALID,210,VALID,0.346875,
2008-08-12, 03:37:05,VALID,1008.6,VALID,0,VALID,94.2238,VALID,0,VALID,24.1812,VALID,210,VALID,0,
2008-08-12, 03:38:05,VALID,1008.63,VALID,0,VALID,94.2467,VALID,0.105969,VALID,24.1793,VALID,210,VALID,0.00195313,
2008-08-12, 03:39:05,VALID,1008.64,VALID,0,VALID,94.2467,VALID,0.105969,VALID,24.1793,VALID,210,VALID,0.172656,
2008-08-12, 03:40:05,VALID,1008.67,VALID,0,VALID,94.2238,VALID,0,VALID,24.1793,VALID,210,VALID,0.114453,
2008-08-12, 03:41:05,VALID,1008.68,VALID,0,VALID,94.2467,VALID,0,VALID,24.2007,VALID,210,VALID,0.214062,
2008-08-12, 03:42:05,VALID,1008.73,VALID,0,VALID,94.2314,VALID,0.105969,VALID,24.1793,VALID,210,VALID,0.295703,